SCP
0 0 0 0 0 0 0 0 0 0 1 3 4 5 5 5 5 6 7 5 5 3
0 0 0 0 -0 -0 -0 0 0 1 1 1 2 3 3 2 6 0 0 2 1 0
0 0 0 0 0 -0 -0 -0 0 0 1 1 0 2 1 0 0 0 -0 0 -0 -0
0 0 0 0 0 -0 0 -0 -0 -0 0 1 0 1 1 1 0 0 0 0 0 0
0 0 0 0 0 -0 -0 -0 -0 -0 -0 0 1 1 1 0 0 0 0 0 0 0
0 0 0 0 0 -0 -0 -0 -0 0 0 0 1 0 0 0 0 0 0 0 0 0
0 0 0 0 0 0 0 0 -0 -0 -0 -0 -0 0 0 0 0 0 0 0 0 0
0 0 0 0 0 0 0 0 -0 -0 0 0 -0 0 0 0 0 0 0 -0 -0 -0
0 0 0 0 0 0 0 0 0 -0 -0 0 0 0 0 0 0 0 0 -0 -0 -0
0 0 0 0 0 0 0 0 0 0 0 0 0 0 0 0 0 0 -0 -0 0 -0
0 0 0 0 0 0 0 0 0 0 -0 0 0 -0 -0 -0 -0 -0 -0 -0 0 0
0 0 0 0 0 0 0 0 0 0 0 0 0 0 -0 -0 0 0 0 0 0 0
0 0 0 0 0 0 0 0 0 0 0 0 0 -0 -0 0 0 0 0 0 0 0
0 0 0 0 -0 0 0 0 0 0 0 0 0 -0 0 0 0 0 0 0 0 -0
Wind_Speed_500mb
51 44 56 60 69 76 79 87 91 92 107 87 99 112 113 110 112 109 109 112 104 94
39 47 58 70 76 82 86 83 86 92 93 96 93 92 104 103 107 98 89 82 98 90
49 52 51 57 75 80 76 80 75 83 92 101 101 91 96 101 136 56 79 73 112 91
51 54 50 54 66 72 77 73 78 79 84 98 99 93 99 96 94 91 120 87 74 103
54 57 58 55 63 68 74 75 79 81 80 83 91 97 91 92 94 94 112 64 46 32
63 59 62 65 68 72 76 78 80 87 79 67 78 93 87 77 82 99 101 92 65 50
57 70 69 65 68 67 71 79 80 79 77 88 96 94 77 59 63 76 74 60 69 52
51 64 72 64 69 70 66 76 72 69 60 56 87 103 79 59 60 59 52 61 62 54
74 69 59 67 69 76 67 67 71 63 65 42 73 63 48 62 64 58 57 55 69 68
111 104 85 71 62 72 69 67 64 46 36 23 20 27 63 36 41 52 60 64 65 61
95 96 84 82 70 53 65 64 58 51 34 35 29 26 34 46 41 42 57 59 58 50
77 77 74 86 84 55 61 63 57 50 35 31 24 34 33 57 64 58 58 49 46 47
77 79 72 70 83 45 57 57 54 51 39 33 26 44 83 74 64 61 57 52 46 39
73 74 65 63 66 60 54 51 52 48 31 20 26 31 58 66 64 60 51 45 40 31
Wind_Direction_500mb
280 284 289 291 295 294 292 285 281 270 266 264 261 254 256 258 251 248 246 242 235 232
277 282 288 292 296 297 288 291 286 278 276 277 269 263 259 259 252 238 245 247 239 224
288 291 291 299 305 308 306 293 291 282 276 275 275 267 261 254 262 272 275 265 289 297
283 288 298 301 302 306 312 312 292 290 282 277 275 271 263 263 264 262 248 272 274 260
285 289 288 292 298 307 311 311 298 291 288 281 277 267 267 261 252 251 243 235 252 270
284 281 285 294 305 308 307 307 320 301 286 305 302 279 263 251 244 238 234 241 250 193
284 281 282 283 293 303 311 300 305 312 298 292 311 271 249 224 223 229 229 219 194 195
284 282 279 284 292 294 301 308 300 317 305 295 307 242 242 216 208 188 187 184 192 202
285 287 297 291 290 288 292 300 310 308 318 309 310 265 231 214 186 176 163 156 197 204
286 283 289 287 290 286 290 292 307 301 300 320 304 235 197 196 194 197 175 185 190 177
278 275 275 277 277 290 286 284 292 296 302 255 272 217 160 168 175 169 177 174 172 167
283 275 269 259 259 278 284 276 285 294 279 310 268 259 205 188 170 168 168 169 164 166
277 271 270 281 258 259 282 271 279 289 277 284 259 242 194 179 174 164 171 175 180 181
278 280 268 267 266 260 274 276 269 273 247 252 213 207 180 184 172 174 180 185 180 182
Wind_Speed_850mb
51 44 56 60 69 76 79 87 91 92 107 87 99 112 113 110 112 109 109 112 104 94
39 47 58 70 76 82 86 83 86 92 93 96 93 92 104 103 107 98 89 82 98 90
49 52 51 57 75 80 76 80 75 83 92 101 101 91 96 101 136 56 79 73 112 91
51 54 50 54 66 72 77 73 78 79 84 98 99 93 99 96 94 91 120 87 74 103
54 57 58 55 63 68 74 75 79 81 80 83 91 97 91 92 94 94 112 64 46 32
63 59 62 65 68 72 76 78 80 87 79 67 78 93 87 77 82 99 101 92 65 50
57 70 69 65 68 67 71 79 80 79 77 88 96 94 77 59 63 76 74 60 69 52
51 64 72 64 69 70 66 76 72 69 60 56 87 103 79 59 60 59 52 61 62 54
74 69 59 67 69 76 67 67 71 63 65 42 73 63 48 62 64 58 57 55 69 68
111 104 85 71 62 72 69 67 64 46 36 23 20 27 63 36 41 52 60 64 65 61
95 96 84 82 70 53 65 64 58 51 34 35 29 26 34 46 41 42 57 59 58 50
77 77 74 86 84 55 61 63 57 50 35 31 24 34 33 57 64 58 58 49 46 47
77 79 72 70 83 45 57 57 54 51 39 33 26 44 83 74 64 61 57 52 46 39
73 74 65 63 66 60 54 51 52 48 31 20 26 31 58 66 64 60 51 45 40 31
Wind_Direction_850mb
280 284 289 291 295 294 292 285 281 270 266 264 261 254 256 258 251 248 246 242 235 232
277 282 288 292 296 297 288 291 286 278 276 277 269 263 259 259 252 238 245 247 239 224
288 291 291 299 305 308 306 293 291 282 276 275 275 267 261 254 262 272 275 265 289 297
283 288 298 301 302 306 312 312 292 290 282 277 275 271 263 263 264 262 248 272 274 260
285 289 288 292 298 307 311 311 298 291 288 281 277 267 267 261 252 251 243 235 252 270
284 281 285 294 305 308 307 307 320 301 286 305 302 279 263 251 244 238 234 241 250 193
284 281 282 283 293 303 311 300 305 312 298 292 311 271 249 224 223 229 229 219 194 195
284 282 279 284 292 294 301 308 300 317 305 295 307 242 242 216 208 188 187 184 192 202
285 287 297 291 290 288 292 300 310 308 318 309 310 265 231 214 186 176 163 156 197 204
286 283 289 287 290 286 290 292 307 301 300 320 304 235 197 196 194 197 175 185 190 177
278 275 275 277 277 290 286 284 292 296 302 255 272 217 160 168 175 169 177 174 172 167
283 275 269 259 259 278 284 276 285 294 279 310 268 259 205 188 170 168 168 169 164 166
277 271 270 281 258 259 282 271 279 289 277 284 259 242 194 179 174 164 171 175 180 181
278 280 268 267 266 260 274 276 269 273 247 252 213 207 180 184 172 174 180 185 180 182